Temp
63 63 62 62 62 62 62 62 61 62 61 61 61 61 62 62 63 64 64 65 64 64 63 63 63 63 63 57 61 70 68 70 72 69 65 62 62 61 57 59 59 58 61 62 64 63 63
62 62 62 62 62 62 62 62 62 61 61 61 61 61 61 61 61 62 64 65 64 64 63 63 62 62 60 50 68 69 69 69 70 66 65 64 61 64 59 57 57 59 58 60 61 62 63
62 62 62 62 62 61 61 61 61 61 61 60 60 61 61 61 60 60 62 63 64 64 63 63 62 63 56 56 68 69 68 67 67 69 62 65 64 58 61 55 60 58 53 59 61 61 60
62 61 61 61 62 61 61 61 61 61 60 60 60 60 60 61 60 59 60 63 63 63 63 63 63 61 53 65 69 65 68 67 68 69 67 67 63 57 57 60 57 53 53 49 58 58 60
61 61 61 61 61 60 60 60 60 61 60 59 59 58 59 60 60 58 58 62 62 62 62 63 59 57 51 65 59 65 68 63 64 67 66 67 62 56 55 52 49 51 47 48 52 60 59
61 62 60 60 60 59 60 59 59 60 59 59 58 58 57 58 58 58 57 60 61 61 61 60 60 50 55 54 60 62 66 66 61 62 59 58 57 53 53 49 42 46 44 48 48 55 55
61 61 60 60 60 60 60 59 59 59 59 58 57 56 57 58 58 58 55 54 48 47 54 50 51 51 54 60 64 59 64 62 61 57 48 51 44 43 49 52 53 48 46 46 51 55 51
60 60 60 60 59 59 59 58 58 59 58 57 57 58 57 57 57 58 54 48 53 58 45 54 53 54 57 60 51 56 63 55 53 47 51 45 39 51 53 52 48 45 42 42 50 54 50
60 59 59 59 58 58 58 57 58 59 58 58 58 55 55 56 56 55 50 51 56 63 49 47 52 52 54 57 52 52 58 55 51 46 47 44 46 51 48 46 44 45 41 42 41 49 51
59 59 59 58 58 57 57 57 57 57 58 58 56 54 53 54 50 54 49 56 52 55 38 40 44 51 54 56 49 60 61 56 49 46 47 45 51 45 45 43 46 41 50 47 43 40 35
59 58 58 57 56 56 56 56 56 57 57 57 56 54 55 55 54 50 55 53 51 50 26 43 43 58 55 50 51 49 61 55 46 46 46 43 43 43 39 43 48 42 48 45 44 40 38
58 57 57 56 56 56 56 56 56 57 57 56 55 54 55 53 53 55 54 51 48 32 27 36 43 42 43 47 49 50 51 56 55 48 48 47 51 48 47 49 49 48 44 43 42 37 29
58 58 57 56 56 56 56 55 56 57 57 56 55 55 53 57 50 56 52 46 31 30 41 34 37 42 43 40 43 46 43 40 40 33 34 42 44 48 49 42 46 43 36 31 27 27 31
57 56 56 56 56 56 55 55 56 57 56 55 54 54 55 57 57 55 48 36 29 37 39 44 43 43 39 43 43 43 40 37 46 43 38 34 34 44 46 42 42 40 38 33 26 31 36
56 55 55 55 55 55 55 55 56 56 56 54 54 50 50 54 55 50 39 32 35 40 43 40 41 36 36 41 42 40 40 39 44 44 35 35 34 45 47 49 46 37 32 44 33 38 31
56 56 56 55 56 55 55 55 56 56 55 54 46 46 49 55 53 46 37 34 40 46 46 46 36 40 33 36 38 39 39 47 45 49 49 40 32 42 44 46 46 43 46 31 32 24 25
55 55 55 55 55 54 54 55 56 55 55 54 44 38 49 55 51 40 34 34 41 49 49 44 40 39 40 37 40 39 41 44 48 47 50 44 37 36 38 36 40 36 33 35 37 35 29
55 55 55 55 55 54 54 55 55 55 55 50 43 35 50 50 35 35 36 41 46 45 49 46 47 45 43 42 40 41 40 43 50 48 41 47 38 31 35 48 50 48 41 39 29 29 32
55 55 55 55 54 54 54 54 55 55 54 45 39 39 50 49 33 35 38 41 45 44 45 45 43 47 47 43 38 43 42 48 48 46 44 46 34 29 35 40 45 37 42 43 37 35 30
55 55 55 55 54 55 54 54 54 54 53 48 39 34 38 44 44 42 40 39 39 47 46 48 46 48 45 42 45 40 41 46 48 48 48 48 39 33 33 38 40 32 37 39 33 29 35
55 55 55 55 54 54 54 54 54 54 53 46 41 37 40 34 40 45 44 43 41 41 46 48 44 45 44 39 40 38 43 44 45 47 47 44 31 34 36 40 39 36 36 37 32 35 31
55 55 55 55 54 54 54 53 53 54 53 44 37 37 42 44 45 44 44 42 42 42 44 42 43 45 46 41 42 40 43 44 45 46 45 45 34 35 33 41 40 34 37 37 36 36 35
55 55 55 55 54 54 54 53 53 54 51 42 43 44 39 42 43 44 43 44 43 46 46 48 47 46 44 45 48 49 48 49 50 45 43 41 34 32 31 40 37 34 37 39 39 38 38
54 55 55 54 54 54 53 53 53 53 52 46 44 42 38 38 43 44 45 46 45 46 44 47 49 46 49 55 51 49 49 47 47 48 49 40 36 34 31 34 29 40 45 43 40 42 45
54 54 54 54 54 53 53 53 53 53 53 47 46 42 40 40 46 45 45 47 48 49 46 47 48 51 53 47 41 38 42 40 44 47 47 48 41 34 31 32 40 43 44 41 37 40 50
54 54 54 53 53 53 53 53 53 53 53 50 45 47 43 41 43 49 46 47 44 44 45 47 50 51 51 43 41 33 36 39 39 40 43 43 42 36 34 29 30 45 46 51 49 43 51
53 53 53 53 53 53 53 53 52 52 53 49 45 47 42 40 51 50 46 45 50 47 42 43 43 44 49 40 37 35 37 42 38 38 35 36 36 33 34 32 41 52 49 50 40 43 50
53 53 53 52 52 52 52 52 52 52 52 50 45 48 41 39 46 52 54 49 48 49 43 43 42 44 41 39 37 37 36 43 40 43 42 41 38 35 36 34 33 51 51 46 50 51 50
52 52 52 52 52 52 52 52 52 52 52 51 43 48 47 40 46 52 52 53 54 54 48 45 44 46 48 40 40 40 38 43 41 40 44 40 47 47 45 46 53 53 53 55 51 49 49
MSLP
1021.08 1020.90 1020.53 1020.14 1019.64 1019.26 1018.74 1018.24 1017.88 1017.40 1017.23 1016.64 1016.10 1015.54 1014.93 1014.42 1013.83 1013.39 1013.44 1013.58 1013.82 1014.03 1014.31 1014.35 1014.27 1014.33 1014.29 1013.34 1012.22 1012.56 1012.64 1012.68 1012.46 1012.74 1012.81 1012.87 1013.11 1013.00 1012.57 1012.64 1013.03 1012.54 1011.86 1012.02 1011.64 1011.82 1011.59
1021.21 1020.93 1020.44 1019.99 1019.48 1019.04 1018.60 1018.07 1017.62 1017.11 1016.88 1016.31 1015.76 1015.31 1014.74 1014.31 1013.86 1013.21 1013.03 1013.17 1013.48 1013.68 1013.95 1014.11 1014.17 1014.28 1014.20 1012.81 1012.43 1012.66 1012.43 1012.42 1012.27 1012.50 1012.56 1012.92 1013.10 1013.22 1012.95 1013.12 1013.17 1012.79 1012.54 1012.15 1011.93 1011.77 1011.60
1021.25 1020.67 1020.19 1019.79 1019.37 1018.89 1018.48 1017.91 1017.34 1016.85 1016.29 1016.04 1015.60 1014.91 1014.51 1014.06 1013.76 1013.22 1012.67 1012.75 1013.12 1013.41 1013.56 1013.89 1014.13 1014.08 1013.92 1012.47 1012.36 1012.70 1012.41 1012.35 1012.59 1012.22 1012.51 1013.00 1013.39 1013.78 1013.41 1013.50 1013.55 1013.15 1012.61 1011.84 1011.35 1011.27 1011.12
1020.92 1020.50 1020.03 1019.43 1018.94 1018.61 1018.22 1017.63 1016.97 1016.45 1016.04 1015.59 1015.16 1014.67 1014.19 1013.61 1013.41 1013.00 1012.50 1012.22 1012.70 1013.04 1013.37 1013.62 1013.94 1013.85 1012.98 1012.71 1012.60 1012.79 1012.49 1012.42 1012.79 1012.81 1012.71 1013.17 1013.67 1014.05 1013.89 1013.87 1013.41 1012.98 1012.61 1011.46 1011.02 1011.24 1010.96
1020.74 1020.16 1019.61 1019.12 1018.70 1018.36 1017.77 1017.19 1016.67 1015.96 1015.64 1015.16 1014.74 1014.31 1013.74 1013.37 1013.09 1012.71 1012.25 1011.82 1012.17 1012.71 1013.12 1013.42 1013.90 1013.69 1012.46 1012.72 1012.69 1012.38 1012.47 1012.24 1012.89 1013.04 1013.20 1013.39 1013.64 1013.84 1014.19 1013.59 1013.23 1012.88 1011.82 1011.53 1011.14 1011.06 1010.80
1020.44 1019.81 1019.48 1019.01 1018.32 1017.99 1017.38 1016.81 1016.32 1015.64 1015.21 1014.72 1014.49 1013.91 1013.45 1013.03 1012.77 1012.45 1011.72 1010.83 1011.75 1012.57 1013.17 1013.61 1013.52 1013.68 1012.64 1012.12 1012.07 1012.47 1012.75 1012.47 1012.78 1013.19 1013.58 1013.71 1013.53 1013.48 1013.59 1013.40 1012.33 1011.86 1012.33 1011.95 1011.43 1011.13 1011.04
1020.20 1019.71 1019.02 1018.41 1017.81 1017.24 1016.73 1016.32 1015.78 1015.07 1014.58 1014.21 1013.86 1013.48 1012.98 1012.60 1012.41 1011.97 1011.90 1010.73 1011.73 1012.57 1012.29 1011.96 1012.22 1011.99 1011.85 1012.05 1012.27 1012.67 1012.66 1012.64 1012.95 1013.29 1013.39 1014.00 1013.90 1013.13 1012.94 1013.17 1012.96 1013.08 1012.85 1012.37 1011.93 1011.90 1011.42
1019.96 1019.24 1018.57 1017.99 1017.39 1016.74 1016.25 1015.83 1015.19 1014.49 1014.03 1013.66 1013.14 1012.67 1012.46 1012.15 1011.78 1011.51 1011.32 1010.34 1009.06 1008.98 1011.24 1011.78 1012.01 1012.01 1012.15 1012.05 1012.26 1012.68 1012.75 1012.51 1012.77 1012.86 1013.50 1014.29 1013.56 1013.18 1013.41 1013.48 1013.64 1013.63 1013.43 1012.95 1012.45 1012.12 1011.95
1019.52 1018.98 1018.26 1017.53 1016.95 1016.33 1015.79 1015.30 1014.67 1013.87 1013.40 1012.83 1012.35 1012.28 1011.87 1011.52 1011.17 1010.82 1010.78 1009.94 1009.56 1008.31 1009.69 1011.34 1011.66 1011.74 1011.93 1012.16 1011.88 1012.27 1012.51 1012.49 1012.47 1012.96 1013.21 1013.01 1013.30 1013.22 1013.58 1013.78 1013.76 1013.60 1013.47 1013.38 1013.17 1012.80 1012.17
1019.17 1018.66 1017.83 1017.18 1016.50 1016.04 1015.46 1014.79 1014.20 1013.47 1012.75 1012.23 1011.85 1011.48 1010.74 1010.26 1010.49 1009.69 1009.37 1009.51 1009.94 1009.39 1010.10 1011.31 1011.39 1010.98 1011.68 1011.83 1011.74 1011.88 1012.14 1012.32 1012.80 1012.65 1013.18 1013.37 1013.25 1013.70 1013.77 1013.75 1013.81 1013.31 1013.25 1013.42 1013.44 1013.30 1012.07
1018.77 1018.26 1017.65 1016.92 1016.36 1015.75 1015.00 1014.29 1013.63 1012.83 1012.20 1011.58 1011.15 1010.58 1009.68 1009.16 1008.57 1008.35 1008.11 1008.86 1010.53 1010.45 1010.87 1010.44 1010.99 1011.04 1010.89 1011.45 1011.55 1012.05 1012.17 1012.35 1012.30 1012.52 1013.11 1012.87 1013.15 1013.41 1013.70 1013.56 1013.89 1013.52 1013.75 1013.70 1013.55 1013.08 1012.39
1018.80 1018.04 1017.41 1016.71 1016.03 1015.34 1014.52 1013.85 1013.11 1012.24 1011.56 1010.99 1010.54 1009.97 1008.98 1008.51 1008.80 1008.27 1008.11 1009.42 1010.37 1011.54 1010.05 1010.15 1010.52 1010.62 1010.91 1011.39 1011.53 1012.05 1012.34 1012.58 1012.51 1012.71 1012.90 1012.75 1013.37 1013.43 1013.22 1013.47 1013.79 1014.10 1014.08 1014.01 1013.64 1013.37 1011.26
1018.46 1017.71 1017.01 1016.40 1015.73 1014.83 1014.14 1013.47 1012.59 1011.79 1011.03 1010.40 1009.70 1008.79 1008.28 1007.91 1007.58 1008.35 1008.79 1009.27 1010.75 1009.53 1009.38 1009.84 1009.78 1010.12 1010.52 1011.08 1011.47 1011.64 1012.08 1012.42 1012.27 1012.75 1012.63 1012.74 1012.62 1013.01 1013.42 1013.63 1013.96 1014.24 1014.54 1013.52 1013.08 1012.09 1009.01
1018.13 1017.68 1016.84 1016.12 1015.32 1014.45 1013.83 1013.10 1012.15 1011.30 1010.61 1009.81 1008.79 1007.82 1006.90 1007.13 1007.83 1008.37 1009.00 1009.64 1008.95 1008.30 1008.24 1008.89 1009.16 1009.93 1010.25 1010.86 1011.17 1011.54 1011.82 1011.93 1011.99 1012.14 1012.21 1012.27 1011.94 1012.25 1013.21 1013.22 1013.00 1013.56 1013.83 1012.90 1011.07 1009.59 1007.76
1018.08 1017.36 1016.63 1015.86 1015.02 1014.28 1013.52 1012.88 1011.93 1011.02 1010.15 1009.28 1008.26 1007.45 1007.16 1007.16 1007.96 1008.84 1009.29 1008.68 1007.57 1007.00 1007.35 1008.08 1009.40 1009.69 1010.23 1010.63 1010.79 1011.28 1011.46 1011.38 1011.35 1011.85 1012.21 1012.07 1012.24 1012.50 1012.63 1012.70 1013.19 1013.24 1012.84 1012.45 1011.90 1010.37 1008.77
1017.85 1017.11 1016.34 1015.62 1014.79 1014.17 1013.44 1012.74 1011.75 1010.92 1010.03 1009.21 1008.62 1007.63 1007.24 1007.21 1007.85 1008.04 1008.44 1007.98 1007.33 1006.63 1006.74 1007.67 1008.21 1008.89 1009.40 1010.11 1010.41 1010.62 1010.88 1010.52 1010.73 1010.89 1011.57 1012.29 1012.47 1012.45 1012.58 1013.09 1012.69 1012.35 1012.33 1012.48 1012.15 1009.89 1007.24
1017.65 1016.96 1016.23 1015.44 1014.74 1014.15 1013.41 1012.51 1011.62 1010.78 1009.83 1008.95 1008.51 1007.72 1007.33 1007.55 1008.24 1008.62 1008.40 1008.05 1007.51 1007.21 1006.86 1007.20 1007.68 1008.19 1008.66 1009.23 1009.83 1010.13 1010.23 1010.49 1010.44 1010.71 1011.41 1011.99 1012.73 1012.66 1013.08 1011.98 1010.88 1011.99 1011.96 1011.93 1011.29 1009.70 1006.96
1017.55 1016.82 1016.07 1015.25 1014.64 1014.06 1013.41 1012.43 1011.58 1010.58 1009.54 1008.95 1008.40 1007.84 1007.34 1007.29 1008.24 1008.89 1008.60 1007.72 1007.22 1007.21 1007.05 1007.21 1007.43 1007.72 1008.27 1008.89 1009.39 1009.67 1009.82 1010.14 1010.42 1010.79 1011.08 1011.47 1012.19 1011.83 1011.01 1010.05 1010.16 1010.01 1010.15 1010.71 1010.42 1008.54 1007.01
1017.39 1016.68 1015.88 1015.19 1014.60 1013.94 1013.25 1012.48 1011.68 1010.71 1009.67 1008.66 1008.26 1008.25 1008.00 1007.79 1007.80 1008.10 1008.38 1007.53 1007.10 1007.35 1007.31 1007.21 1007.34 1007.56 1008.13 1008.50 1009.06 1009.39 1009.88 1010.12 1010.44 1010.55 1010.50 1011.29 1011.83 1011.17 1009.63 1009.73 1009.69 1009.83 1009.23 1009.18 1008.93 1008.36 1006.10
1017.20 1016.63 1015.82 1015.08 1014.55 1013.81 1013.14 1012.54 1011.76 1010.80 1009.68 1008.47 1008.56 1008.61 1008.84 1008.28 1007.88 1007.59 1007.49 1007.71 1007.68 1007.67 1007.39 1007.31 1007.50 1007.65 1007.96 1008.43 1008.89 1009.41 1009.76 1009.93 1010.19 1010.38 1010.83 1011.22 1011.00 1010.64 1009.51 1008.22 1008.51 1009.17 1008.40 1008.31 1008.45 1007.44 1004.85
1017.10 1016.58 1015.70 1015.00 1014.49 1013.82 1013.26 1012.48 1011.70 1010.87 1009.70 1009.00 1008.48 1008.75 1008.77 1008.13 1007.91 1007.21 1007.09 1007.35 1007.30 1007.42 1007.68 1007.54 1007.77 1007.73 1007.95 1008.28 1008.83 1009.21 1009.49 1009.68 1010.12 1010.30 1010.68 1010.99 1010.61 1010.26 1009.28 1008.59 1008.13 1007.49 1006.76 1006.68 1006.78 1005.53 1005.31
1017.06 1016.46 1015.77 1015.02 1014.52 1013.85 1013.35 1012.77 1011.96 1010.93 1010.07 1009.92 1009.78 1009.52 1008.58 1008.08 1007.62 1007.07 1007.22 1007.26 1007.22 1007.54 1007.49 1007.65 1007.60 1007.88 1008.07 1008.26 1008.54 1008.75 1009.12 1009.26 1008.93 1009.83 1010.22 1010.45 1010.06 1009.73 1008.22 1007.55 1006.90 1006.10 1005.35 1005.01 1004.57 1004.33 1003.58
1016.86 1016.41 1015.80 1015.11 1014.60 1014.05 1013.57 1012.91 1012.18 1011.29 1010.76 1010.81 1010.78 1010.52 1009.89 1008.56 1007.67 1007.16 1006.92 1007.10 1007.39 1007.51 1007.82 1007.68 1007.77 1007.90 1008.05 1008.29 1008.54 1008.73 1008.98 1008.88 1008.70 1008.97 1009.44 1009.92 1010.13 1009.81 1007.48 1006.49 1005.53 1004.47 1004.04 1003.73 1003.21 1003.00 1002.49
1016.77 1016.23 1015.75 1015.22 1014.69 1014.19 1013.75 1013.14 1012.52 1012.04 1011.59 1011.54 1010.93 1010.67 1009.66 1008.64 1007.89 1007.32 1007.28 1007.24 1007.32 1007.53 1007.69 1007.94 1008.03 1008.13 1008.40 1008.35 1008.58 1008.53 1008.29 1008.23 1008.36 1008.25 1008.78 1008.98 1009.55 1009.55 1007.59 1006.46 1004.46 1003.44 1003.13 1003.03 1002.67 1001.97 1001.65
1016.66 1016.07 1015.61 1015.21 1014.79 1014.43 1013.86 1013.40 1013.04 1012.70 1012.18 1011.66 1011.22 1010.98 1010.10 1008.70 1007.82 1007.43 1007.15 1007.08 1007.41 1007.64 1007.91 1008.03 1008.28 1008.35 1008.50 1008.75 1008.60 1008.13 1007.54 1007.62 1007.09 1007.33 1007.78 1008.31 1008.83 1008.55 1007.75 1005.84 1003.74 1002.51 1002.46 1002.48 1002.43 1001.47 1000.70
1016.53 1016.12 1015.66 1015.22 1014.86 1014.43 1014.12 1013.72 1013.21 1012.86 1012.17 1011.74 1011.56 1011.24 1010.46 1009.11 1007.53 1006.95 1007.02 1007.14 1007.27 1007.49 1007.89 1008.08 1008.42 1008.60 1008.61 1008.76 1008.54 1008.03 1006.98 1006.65 1006.59 1007.05 1007.34 1007.59 1008.00 1008.02 1007.11 1005.62 1003.44 1001.78 1001.85 1001.71 1001.78 1000.73 1000.65
1016.37 1016.09 1015.71 1015.21 1014.79 1014.39 1013.94 1013.54 1013.19 1012.78 1012.26 1011.86 1011.58 1011.39 1010.74 1009.21 1007.19 1006.81 1006.53 1006.77 1007.05 1007.34 1007.77 1008.32 1008.52 1008.67 1008.69 1008.61 1008.48 1007.97 1007.06 1006.73 1006.23 1006.08 1006.81 1007.12 1007.22 1006.86 1006.22 1005.17 1002.73 1001.39 1001.41 1001.40 1001.29 1001.87 1001.12
1016.19 1015.91 1015.62 1015.14 1014.73 1014.37 1013.90 1013.55 1013.24 1012.82 1012.34 1012.01 1011.58 1011.34 1011.36 1009.89 1007.78 1006.96 1006.65 1006.64 1006.86 1006.93 1007.47 1008.47 1008.77 1008.57 1008.61 1008.43 1008.29 1007.89 1007.32 1006.41 1006.14 1005.47 1005.29 1005.25 1005.40 1005.29 1004.97 1003.84 1002.17 1001.27 1001.10 1001.31 1001.60 1001.40 1001.73
1015.92 1015.65 1015.46 1015.13 1014.62 1014.27 1013.92 1013.42 1013.10 1012.84 1012.43 1011.95 1011.48 1011.21 1011.09 1010.58 1008.34 1007.42 1006.97 1006.82 1006.72 1006.59 1007.22 1008.03 1008.21 1008.03 1007.89 1008.11 1008.14 1007.85 1007.21 1006.48 1005.97 1004.92 1004.92 1004.54 1003.85 1003.56 1003.36 1001.78 1001.13 1001.18 1001.09 1001.30 1001.81 1001.89 1002.06
Wind_Speed
19 20 20 21 21 22 22 21 22 21 24 24 23 24 23 22 21 17 16 14 12 10 7 5 2 4 5 8 7 3 3 4 5 16 13 10 9 7 8 5 6 12 9 7 8 8 10
21 21 20 21 22 22 21 23 23 21 23 23 21 21 23 22 23 18 16 14 14 12 9 6 3 3 6 12 4 1 2 1 5 15 14 11 7 4 3 4 9 1 6 9 8 12 11
19 19 20 21 23 22 23 22 23 24 22 21 24 21 22 21 20 19 16 17 16 14 11 8 6 4 6 7 1 1 2 3 1 14 15 7 9 5 6 5 3 5 10 11 14 12 14
18 19 19 22 22 22 22 23 24 23 25 21 23 22 20 20 19 18 20 19 16 13 12 10 8 4 6 1 4 6 2 6 6 5 6 10 8 5 2 2 3 4 5 6 4 3 6
20 20 23 22 21 22 23 24 25 23 24 20 23 23 20 19 19 17 19 18 16 12 14 12 6 5 3 3 5 5 7 10 9 8 9 10 8 4 5 5 6 8 8 9 10 8 7
22 23 21 22 23 22 23 22 24 23 24 21 23 22 17 16 18 19 20 16 16 11 11 6 3 4 5 3 5 5 5 12 6 11 9 5 4 6 7 9 8 6 10 10 11 2 9
23 25 23 25 25 23 26 25 24 23 22 23 21 19 18 19 19 21 14 4 9 5 7 4 8 2 4 6 6 5 8 10 9 10 8 4 5 11 15 14 13 5 8 11 10 9 18
23 24 25 24 25 25 25 24 25 23 22 23 22 21 20 23 24 22 12 6 14 9 9 10 8 4 1 2 4 9 8 9 12 13 9 6 12 13 8 12 13 13 15 17 16 14 13
25 26 26 26 26 26 26 24 24 25 24 23 23 22 27 26 29 14 10 10 8 10 5 6 12 5 5 5 4 13 13 7 12 12 16 9 3 5 13 14 13 16 17 15 17 17 19
25 26 27 27 27 26 25 25 24 25 25 23 22 28 34 28 17 12 8 11 5 11 4 9 11 10 8 6 5 9 14 7 5 13 11 10 11 6 9 12 13 15 12 13 13 11 6
27 26 27 27 27 26 25 24 23 24 24 22 23 24 30 11 3 7 6 12 3 5 8 13 8 5 10 12 11 6 11 4 9 9 7 5 7 12 15 12 12 7 5 7 9 13 14
26 26 26 27 27 25 25 23 25 25 24 23 26 23 26 6 7 3 7 11 6 5 6 8 7 13 15 13 7 7 8 2 2 7 9 10 2 6 9 10 13 3 6 10 10 8 11
26 24 25 26 26 25 25 24 25 26 24 27 29 26 15 6 6 9 8 7 6 5 7 8 10 12 15 10 10 10 12 10 7 6 8 7 17 7 6 6 6 12 4 4 5 7 9
25 27 27 27 25 25 24 23 26 25 26 26 28 26 7 6 7 8 5 3 4 7 7 6 12 17 8 18 8 9 12 11 12 4 3 5 5 13 11 15 4 15 13 7 7 7 7
26 27 26 26 25 25 23 23 26 25 25 30 21 5 2 3 7 2 8 4 2 6 12 13 12 8 5 11 5 8 10 7 9 12 6 5 5 3 10 8 12 6 12 14 16 22 15
26 26 25 25 25 25 24 24 26 25 26 30 8 3 1 8 9 6 5 4 0 5 19 16 7 7 8 14 8 10 12 7 9 14 12 2 5 5 4 7 13 13 1 6 7 7 13
25 26 26 25 25 24 24 25 26 26 28 27 2 3 2 3 5 4 3 2 5 12 10 3 6 9 8 13 9 11 8 2 10 10 17 8 4 3 3 14 13 10 8 7 9 11 9
25 25 25 25 24 23 24 25 26 28 29 13 3 2 3 4 6 2 3 2 6 8 4 4 6 9 12 13 12 9 9 5 8 11 10 13 4 9 15 10 13 17 14 20 10 12 9
25 26 25 25 24 22 23 25 26 28 30 8 2 2 3 2 3 3 2 3 6 4 2 3 4 3 3 8 6 7 5 1 11 12 12 12 6 5 5 4 6 10 17 23 19 12 19
24 24 24 24 22 23 23 25 26 28 31 6 1 3 3 3 2 9 11 6 5 3 4 6 7 6 6 5 2 6 6 3 10 12 6 13 6 7 10 13 3 9 17 17 18 13 20
24 23 22 23 22 22 22 25 26 26 30 6 2 3 1 3 6 8 6 3 9 5 3 3 4 3 4 4 5 4 7 4 5 9 9 9 6 12 21 24 23 24 28 25 19 26 17
22 22 21 22 21 22 23 23 24 25 26 3 5 5 6 2 6 9 4 5 5 4 3 3 2 6 5 3 4 5 4 7 6 10 11 7 6 5 17 21 21 23 21 20 19 18 25
23 23 22 21 20 21 22 22 23 24 18 3 1 2 3 4 4 7 4 6 7 4 1 3 2 3 5 5 6 7 7 8 3 5 11 5 3 3 8 12 24 9 5 9 9 7 12
22 21 20 20 19 20 20 21 22 22 20 3 2 3 3 4 4 7 7 6 8 7 3 3 3 2 3 2 2 6 11 12 13 15 12 6 4 3 9 14 5 4 9 9 11 14 11
21 21 20 19 19 17 20 19 20 20 20 5 2 2 3 2 7 8 5 8 7 5 2 2 2 2 1 1 3 3 3 4 8 14 16 16 11 4 5 5 12 5 8 4 3 6 10
19 19 20 19 19 18 18 17 19 20 20 7 1 3 3 3 6 4 9 10 7 6 4 3 1 2 3 2 2 2 3 1 2 3 3 7 10 5 2 4 5 2 5 4 2 5 15
18 18 18 18 18 18 17 18 19 19 20 9 2 5 3 4 2 9 10 10 4 5 2 1 1 2 3 4 4 3 4 1 3 3 5 4 3 8 5 5 9 5 6 3 4 8 14
16 17 17 18 18 18 18 18 18 18 19 11 4 3 3 4 5 2 3 4 3 4 4 3 1 3 3 4 2 2 3 2 3 2 4 7 7 5 5 5 6 1 4 3 4 6 5
15 16 16 17 18 18 17 18 17 17 17 15 3 3 4 4 4 3 2 2 2 2 5 3 1 2 2 2 3 2 4 3 3 3 3 5 4 1 6 4 2 2 7 5 4 6 3
Wind_Direction
355 357 353 354 349 349 347 346 337 334 333 327 327 325 323 326 322 292 235 219 212 203 214 220 246 292 249 205 235 121 335 332 244 182 173 174 187 195 206 199 206 232 248 248 253 252 257
357 349 353 347 349 346 345 342 342 337 329 324 319 322 314 321 324 310 251 210 211 200 195 187 185 215 229 221 68 48 279 301 225 178 188 166 205 203 171 209 230 259 260 266 262 256 262
352 346 345 344 338 344 336 334 336 333 324 324 318 320 316 314 316 317 287 209 207 197 182 178 169 190 227 243 139 43 112 104 296 197 178 161 142 184 167 186 215 263 277 267 255 249 260
341 339 336 333 331 337 333 328 327 328 324 323 325 317 309 306 315 315 315 210 200 191 177 173 165 179 246 127 245 255 158 115 94 100 190 142 115 110 259 135 183 257 262 274 113 192 223
332 332 331 334 335 327 324 326 326 327 325 321 320 317 316 303 311 314 305 222 190 174 179 160 159 208 241 134 206 210 192 145 122 103 113 135 154 139 169 220 241 217 261 238 281 246 269
331 334 330 325 326 326 320 321 317 326 315 324 315 315 319 320 312 314 299 217 167 145 158 114 122 204 201 190 140 160 172 152 131 130 119 147 157 188 213 206 234 246 230 243 254 175 266
331 331 324 331 328 328 324 324 320 326 324 318 310 312 312 316 310 308 309 192 142 157 201 210 175 132 131 105 136 178 166 136 137 177 182 182 193 211 220 225 247 276 269 266 271 277 299
329 325 328 324 328 326 323 324 321 324 320 312 309 316 305 308 304 294 294 241 179 150 179 195 138 218 132 161 134 157 184 166 179 200 180 179 231 232 230 231 239 253 265 269 276 273 280
328 332 327 330 326 328 324 324 320 320 320 321 321 328 312 304 300 279 239 229 288 163 105 168 191 188 185 199 177 173 189 161 183 172 193 196 121 233 213 223 234 237 249 264 271 293 289
330 329 331 327 329 329 327 324 320 322 324 324 332 323 301 280 282 233 218 214 266 309 129 163 184 211 183 169 214 160 184 165 176 198 187 233 230 201 195 224 228 256 258 259 268 283 271
336 333 334 331 331 331 328 325 321 324 325 323 325 314 328 271 275 216 150 144 76 41 188 136 148 130 177 180 131 166 178 193 175 164 175 186 193 209 225 230 220 239 220 236 261 266 284
335 333 331 334 335 332 329 327 323 328 323 331 327 313 324 267 220 302 129 114 79 148 201 153 135 168 160 187 149 131 169 214 186 204 230 253 179 207 209 218 215 61 227 248 257 256 245
333 340 338 337 337 331 334 331 327 331 329 330 328 319 309 213 211 150 124 106 129 228 167 146 165 160 167 163 160 159 178 175 175 172 215 223 229 214 204 214 224 218 172 251 231 209 249
336 338 339 339 334 341 336 334 332 331 332 328 328 316 270 183 147 128 116 129 185 115 131 158 147 146 164 153 170 164 168 188 212 192 123 218 220 203 181 214 219 204 212 231 258 237 296
339 338 338 341 337 343 340 340 333 334 334 336 334 322 53 179 129 143 146 177 125 152 136 140 134 141 129 167 152 163 183 199 199 194 196 182 255 188 197 204 203 173 214 234 277 272 272
345 339 345 344 345 345 344 342 339 338 338 342 331 284 218 135 137 150 123 85 351 116 127 144 132 190 159 168 165 181 181 202 208 201 204 185 264 210 177 222 229 222 303 195 200 256 246
347 342 345 345 347 347 345 342 345 340 341 339 302 323 34 180 155 156 123 88 106 133 125 130 132 142 153 163 176 180 174 187 208 193 193 166 196 140 149 210 203 192 219 217 277 245 260
346 343 345 346 349 352 346 350 349 343 344 338 326 6 353 65 93 91 122 221 122 126 60 106 103 103 144 159 175 186 201 241 176 155 190 194 203 243 232 238 232 228 231 223 233 236 240
346 346 348 347 354 352 347 353 352 345 344 311 348 2 123 286 96 95 158 82 72 121 92 110 102 84 145 155 159 186 190 198 173 184 176 162 211 278 239 178 218 237 240 236 238 264 241
345 348 349 351 354 354 356 356 354 350 346 345 329 87 28 337 342 134 128 101 118 52 71 72 101 94 122 144 163 171 211 217 192 205 178 183 212 231 261 282 342 254 256 246 229 243 256
348 348 348 355 353 356 357 357 355 354 354 349 280 73 231 141 159 132 89 117 135 119 68 64 97 136 151 147 158 203 200 208 168 201 193 192 251 238 255 271 277 268 270 271 242 238 239
344 351 345 354 354 356 358 358 358 358 353 34 7 1 339 90 157 145 131 158 144 97 134 124 111 167 173 160 194 191 210 211 226 184 197 209 269 279 281 275 266 277 274 277 262 246 244
351 350 350 353 356 355 356 357 360 2 5 351 1 283 269 182 136 171 158 149 158 126 180 49 178 179 194 232 254 240 229 264 248 182 198 206 221 291 271 318 308 275 275 304 267 227 238
346 352 352 352 357 353 355 358 359 4 9 333 322 280 298 140 192 193 172 161 167 196 109 91 120 180 74 56 268 252 247 246 242 239 215 204 180 231 287 304 285 316 324 306 302 282 249
348 350 352 354 355 355 352 358 355 358 356 348 319 299 291 277 197 206 189 171 145 143 221 257 153 174 179 212 271 305 211 216 229 230 230 228 245 273 276 295 276 313 334 301 329 311 346
351 352 352 356 358 355 354 353 356 354 354 353 351 312 292 294 209 191 190 194 198 208 231 225 98 325 193 245 229 267 280 304 166 166 9 228 222 219 271 305 297 314 289 306 148 45 20
347 351 346 346 349 349 347 351 357 352 354 352 287 345 275 274 280 188 188 182 172 155 125 90 194 186 182 186 220 232 256 322 257 220 173 153 182 227 244 260 275 297 318 278 352 347 350
343 345 344 348 349 351 350 352 351 348 350 355 279 49 338 321 287 244 185 156 133 171 169 135 176 190 169 213 217 210 236 254 262 253 195 194 180 201 201 237 283 77 294 8 345 325 341
338 338 342 342 340 341 341 338 340 339 346 355 320 339 305 228 294 306 280 294 306 200 132 171 257 205 165 203 215 286 229 224 285 267 173 231 236 280 236 250 2 282 276 310 331 300 318